74P/Smirnova-Chernykh (2018)

Japanese version
Home page
Updated on May 22, 2017

---------------------------------------------------------------------

* Profile

* Pictures

* Orbital Elements

Epoch 2018 Feb. 11.0 TT = JDT 2458160.5
T 2018 Jan. 26.70761 TT                                 MPCW
q   3.5364633            (2000.0)            P               Q
n   0.11627488     Peri.   87.13557     -0.95561948     -0.27210081
a   4.1573071      Node    77.05558     +0.20253241     -0.88515165
e   0.1493380      Incl.    6.65391     +0.21394400     -0.37744896
P   8.48
From 3570 observations 1981 Sept. 27-2017 Jan. 9, mean residual 0".7.
     Nongravitational parameters Y1 = +0.01, Y2 = -0.0073.

* Finding Charts

* Magnitudes Graph

        m1 = 2.0 + 5 log d + 20.0 log r

---------------------------------------------------------------------

The orbital elements are published on M.P.E.C. 2017-A77.
The charts are made with StellaNavigator Ver.8 (AstroArts).
The magnitudes graphs are made with Comet for Windows.

---------------------------------------------------------------------

Copyright(C) Seiichi Yoshida (comet@aerith.net). All rights reserved.